Showing default

IMPULSE-2 MIRA, 62673

Orbit data source: Space-Track

IMPULSE-2 MIRA, 62673 is a payload satellite owned by Impulse Space (US) in SSO that was launched on Tue, 14 Jan 2025 UTC via an FALCON 9 launch vehicle from the Air Force Western Test Range (AFWTR). Payload-class satellites include a variety of spacecraft equipped with specific instruments for various scientific and technological missions. These include communications satellites like Starlink; space stations such as the ISS; scientific satellites like the Hubble; Earth observation satellites from companies like Planet Labs, Umbra, and HawkEye 360; GPS; miniature CubeSats for education and research; and military/defense satellites.

Loading next visibility...
Identifier
62673, 2025-009BS
Orbit
SSO
Country
Flag of USUS
Related business
Manufacturer
Impulse Space
Mission
Operational Commercial Technology
Bus & Motor
MIRA, AOCS
Mass
250 kg wet, 200 kg dry
Launch date (UTC)
2025-01-14 (9 months ago)
Launch vehicle
FALCON 9
Launch site
Air Force Western Test Range (AFWTR)
Object type
Payload
Rocket body
Debris
Shape & HBR
Box, 1.2 m
Radar Cross Section
0.575 m², Medium (>0.1 m² and < 1m²)

Expand to show TLE details & history
Last TLE update: 20 hours ago

TLE from 20 hours ago
0 IMPULSE-2 MIRA
1 62673U 25009BS  25286.18237268  .00012183  00000-0  40651-3 0  9994
2 62673  97.5416   2.6923 0085211 278.5940  80.5651 15.27711357 98878
Epoch: 2025-10-13T04:22Z
TLE epoch observation values (Epoch: 2025-10-13T04:22:36.999Z)
Latitude
-0.00005°
Longitude
-84.95068°
Altitude
476.653 km
Speed
7.632 km/s
True Right ascension
00h 10m 46s
True Declination
0° 00' 00"
Sunlit
Object was in full shadow at epoch
Visualization orbit readout
Latitude
Unknown
Longitude
Unknown
Altitude
Unknown
Speed
Unknown
Apparent Right ascension
Unknown
Apparent Declination
Unknown
Sunlit
N/A
Visualization observer readout
Local Sidereal Time
18:51:37
Azimuth
Unknown
Elevation
Unknown
Doppler factor
Unknown
Orbital elements
Apogee altitude
538.053 km
Perigee altitude
421.181 km
Semi-major axis
6,857.754 km
Eccentricity
0.00852
Inclination
97.5416°
RAAN
2.6923°
Arg. of periapsis
278.594°
True anomaly
81.52998°
Mean anomaly
80.5651°
Eccentric anomaly
81.04738°
Mean motion
3.82182 °/min
Orbital period
94.2 mins
BSTAR
0.00040651
Loading maneuver chart data...
Computing Atmospheric mass density...
Loading historical data...
Loading historical data...
Loading historical data...
Loading historical data...
Loading historical data...
Loading historical data...
Loading historical data...

Documentation

Showing up to 5 results
|